Дянев

Туркменистан     39°15′36″N   63°11′20″E
темп.,
°C
ветер,
м/с
пор.,
м/с
влажн.,
%
обл.,
%
осадки,
мм/ч
давл.,
гПа
погр.,
м
18 мая, вт
вт1823:00+28ссз44100 0.0 100851
02:00+26с33110 0.0 100721
05:00+24с22140 0.0 100711
08:00+28с11110 0.0 1008170
11:00+33зсз2280 0.0 10082692
14:00+35з4360 0.0 10063158
17:00+35зсз3350 0.0 10053247
20:00+32сз4460 0.0 100548
19 мая, ср
ср1923:00+29ссз3370 0.0 100518
02:00+27ссз3390 0.0 100514
05:00+25ссв33100 0.0 100520
08:00+30с3480 0.0 1006176
11:00+34зсз3365 0.0 10062999
14:00+36з54511 0.0 10053470
17:00+36сз555100 0.0 10043790
20:00+34сз57562 0.0 1005220
20 мая, чт
чт2023:00+30зсз44838 0.0 100550
02:00+27сз591220 0.0 1005136
05:00+26ссз45135 0.0 100648
08:00+30ссз57101 0.0 1007257
11:00+36ссз5381 0.0 10083706
14:00+37ссз55657 0.0 10075093
17:00+38ссз66790 0.0 10075070
20:00+34ссз58896 0.0 1008162
21 мая, пт
пт2123:00+31с510133 0.0 1009214
02:00+28ссз46170 0.0 101082
05:00+26ссз47193 0.0 101091
08:00+30с57190 0.0 1012355
11:00+35ссз77130 0.0 10112801
14:00+37ссз89105 0.0 10104393
17:00+37ссз81097 0.0 10094832
20:00+30всв9112255 0.0 1012830
22 мая, сб
сб2223:00+27всв463067 0.0 1012216
02:00+24сз4639100 0.3 1012116
05:00+25ссз34311 0.4 101152
08:00+28с45265 0.0 1012412
11:00+32с441667 0.0 10111976
14:00+35с551113 0.0 10093632
17:00+34с8794 0.0 10083848
20:00+31ссв710101 0.0 1009380